RYR5804 ESMS-EPMO

Flight info

Callsign RYR5804
Flight time 0h 50m
Altitude 33000
Route TELMO DCT KOLOB DCT ELPOL N195 SORIX
Aircraft B38M/M-SADE3FGILRWY/SB1

Departure

Time 2026-04-28 16:29
Airport Malmö Sturup Airport (ESMS)

Arrival

Time 2026-04-28 17:19
Airport Warsaw Modlin Airport (EPMO)
Time Latitude Longitude Altitude Speed Heading
2026-04-28 15:47 55.54010 13.36786 234 ft 0 kts 353°
2026-04-28 16:20 55.53993 13.36790 234 ft 4 kts 353°
2026-04-28 16:20 55.53971 13.36794 237 ft 3 kts 353°
2026-04-28 16:21 55.53946 13.36794 236 ft 4 kts 25°
2026-04-28 16:21 55.53937 13.36769 237 ft 4 kts 83°
2026-04-28 16:21 55.53936 13.36744 235 ft 0 kts 83°
2026-04-28 16:25 55.53937 13.36770 237 ft 4 kts 83°
2026-04-28 16:25 55.53941 13.36833 233 ft 7 kts 83°
2026-04-28 16:25 55.53948 13.36934 233 ft 10 kts 83°
2026-04-28 16:26 55.53957 13.37073 233 ft 13 kts 83°
2026-04-28 16:26 55.53978 13.37227 234 ft 13 kts 46°
2026-04-28 16:26 55.54069 13.37236 234 ft 15 kts 353°
2026-04-28 16:26 55.54182 13.37213 236 ft 18 kts 354°
2026-04-28 16:27 55.54314 13.37187 236 ft 20 kts 352°
2026-04-28 16:27 55.54451 13.37158 238 ft 21 kts 353°
2026-04-28 16:27 55.54710 13.37197 235 ft 18 kts 24°
2026-04-28 16:28 55.54791 13.37328 238 ft 15 kts 97°
2026-04-28 16:28 55.54716 13.37397 238 ft 13 kts 173°
2026-04-28 16:28 55.54576 13.37427 236 ft 41 kts 173°
2026-04-28 16:28 55.54021 13.37542 245 ft 116 kts 173°
2026-04-28 16:29 55.51926 13.37927 1111 ft 175 kts 174°
2026-04-28 16:29 55.49512 13.38445 2747 ft 167 kts 173°
2026-04-28 16:30 55.48329 13.38651 3207 ft 181 kts 176°
2026-04-28 16:30 55.47001 13.38832 3597 ft 201 kts 174°
2026-04-28 16:30 55.45518 13.39040 3935 ft 227 kts 174°
2026-04-28 16:30 55.43859 13.39265 4364 ft 250 kts 174°
2026-04-28 16:31 55.42062 13.39508 4881 ft 269 kts 174°
2026-04-28 16:31 55.40158 13.39763 5608 ft 275 kts 174°
2026-04-28 16:31 55.38231 13.40017 6504 ft 279 kts 175°
2026-04-28 16:31 55.36324 13.40599 7231 ft 284 kts 155°
2026-04-28 16:32 55.34790 13.42718 7993 ft 283 kts 124°
2026-04-28 16:32 55.32667 13.48683 9457 ft 293 kts 119°
2026-04-28 16:32 55.31558 13.51675 10201 ft 298 kts 118°
2026-04-28 16:33 55.30417 13.54771 10772 ft 308 kts 118°
2026-04-28 16:33 55.29627 13.56907 11008 ft 320 kts 119°
2026-04-28 16:33 55.27960 13.61409 11750 ft 332 kts 119°
2026-04-28 16:33 55.26722 13.64775 12565 ft 334 kts 118°
2026-04-28 16:34 55.25449 13.68234 13350 ft 339 kts 118°
2026-04-28 16:34 55.24164 13.71723 14169 ft 343 kts 118°
2026-04-28 16:34 55.22858 13.75266 14901 ft 347 kts 118°
2026-04-28 16:34 55.21540 13.78836 15642 ft 351 kts 118°
2026-04-28 16:35 55.20203 13.82454 16400 ft 355 kts 119°
2026-04-28 16:35 55.18851 13.86103 17130 ft 360 kts 119°
2026-04-28 16:35 55.17478 13.89811 17845 ft 365 kts 118°
2026-04-28 16:35 55.16087 13.93554 18539 ft 369 kts 118°
2026-04-28 16:36 55.14675 13.97351 19183 ft 373 kts 119°
2026-04-28 16:36 55.13272 14.01115 19758 ft 376 kts 119°
2026-04-28 16:36 55.11836 14.04966 20369 ft 379 kts 119°
2026-04-28 16:36 55.10387 14.08845 20959 ft 383 kts 119°
2026-04-28 16:37 55.08922 14.12760 21526 ft 386 kts 119°
2026-04-28 16:37 55.07443 14.16705 22125 ft 389 kts 119°
2026-04-28 16:37 55.05950 14.20682 22695 ft 393 kts 119°
2026-04-28 16:38 55.02927 14.28714 23826 ft 399 kts 119°
2026-04-28 16:38 55.01414 14.32725 24323 ft 402 kts 119°
2026-04-28 16:38 54.99862 14.36837 24813 ft 406 kts 119°
2026-04-28 16:38 54.98291 14.40984 25234 ft 410 kts 119°
2026-04-28 16:39 54.96717 14.45138 25746 ft 412 kts 119°
2026-04-28 16:39 54.95146 14.49274 26221 ft 415 kts 119°
2026-04-28 16:39 54.93546 14.53479 26696 ft 417 kts 119°
2026-04-28 16:39 54.91932 14.57715 27169 ft 420 kts 119°
2026-04-28 16:40 54.90314 14.61954 27626 ft 422 kts 119°
2026-04-28 16:40 54.88702 14.66169 28054 ft 425 kts 119°
2026-04-28 16:40 54.87061 14.70456 28490 ft 427 kts 119°
2026-04-28 16:40 54.85409 14.74761 28928 ft 430 kts 119°
2026-04-28 16:41 54.83743 14.79097 29351 ft 432 kts 119°
2026-04-28 16:41 54.82063 14.83460 29806 ft 435 kts 119°
2026-04-28 16:41 54.80388 14.87805 30253 ft 437 kts 119°
2026-04-28 16:41 54.78684 14.92215 30602 ft 439 kts 119°
2026-04-28 16:42 54.76978 14.96623 30916 ft 442 kts 119°
2026-04-28 16:42 54.75258 15.01060 31220 ft 445 kts 119°
2026-04-28 16:42 54.73529 15.05513 31560 ft 446 kts 119°
2026-04-28 16:42 54.71798 15.09968 31962 ft 446 kts 119°
2026-04-28 16:43 54.70088 15.14361 32346 ft 447 kts 119°
2026-04-28 16:43 54.68351 15.18814 32730 ft 447 kts 119°
2026-04-28 16:43 54.66609 15.23274 33124 ft 447 kts 119°
2026-04-28 16:43 54.64859 15.27746 33428 ft 450 kts 119°
2026-04-28 16:44 54.63099 15.32227 33387 ft 451 kts 119°
2026-04-28 16:44 54.59573 15.41188 33375 ft 450 kts 119°
2026-04-28 16:45 54.56066 15.50066 33374 ft 450 kts 119°
2026-04-28 16:45 54.52526 15.58997 33373 ft 450 kts 119°
2026-04-28 16:46 54.49005 15.67848 33369 ft 450 kts 120°
2026-04-28 16:46 54.45451 15.76750 33365 ft 450 kts 120°
2026-04-28 16:47 54.41920 15.85563 33360 ft 450 kts 120°
2026-04-28 16:47 54.38354 15.94432 33364 ft 450 kts 120°
2026-04-28 16:48 54.34788 16.03269 33362 ft 450 kts 120°
2026-04-28 16:48 54.31230 16.12055 33369 ft 450 kts 120°
2026-04-28 16:49 54.27636 16.20900 33370 ft 454 kts 121°
2026-04-28 16:49 54.24044 16.29707 33360 ft 454 kts 121°
2026-04-28 16:50 54.20421 16.38559 33355 ft 454 kts 121°
2026-04-28 16:50 54.16789 16.47400 33357 ft 454 kts 121°
2026-04-28 16:51 54.13148 16.56234 33353 ft 454 kts 121°
2026-04-28 16:51 54.09522 16.65003 33352 ft 457 kts 121°
2026-04-28 16:52 54.05839 16.73874 33345 ft 458 kts 122°
2026-04-28 16:52 54.02145 16.82740 33342 ft 458 kts 122°
2026-04-28 16:53 53.98469 16.91535 33341 ft 458 kts 122°
2026-04-28 16:53 53.94789 17.00307 33336 ft 458 kts 122°
2026-04-28 16:54 53.91071 17.09140 33334 ft 462 kts 122°
2026-04-28 16:54 53.87315 17.18028 33334 ft 463 kts 122°
2026-04-28 16:55 53.83560 17.26884 33326 ft 463 kts 122°
2026-04-28 16:55 53.79810 17.35699 33330 ft 463 kts 122°
2026-04-28 16:56 53.76042 17.44525 33324 ft 463 kts 122°
2026-04-28 16:56 53.72271 17.53326 33319 ft 466 kts 122°
2026-04-28 16:57 53.68454 17.62201 33324 ft 466 kts 123°
2026-04-28 16:57 53.64633 17.71057 33320 ft 466 kts 123°
2026-04-28 16:58 53.60828 17.79845 33316 ft 466 kts 123°
2026-04-28 16:58 53.56993 17.88669 33359 ft 466 kts 123°
2026-04-28 16:59 53.53144 17.97496 33317 ft 468 kts 123°
2026-04-28 16:59 53.49304 18.06271 33318 ft 468 kts 123°
2026-04-28 17:00 53.45418 18.15122 33316 ft 469 kts 123°
2026-04-28 17:00 53.41553 18.23893 33323 ft 469 kts 123°
2026-04-28 17:01 53.37668 18.32677 33349 ft 470 kts 124°
2026-04-28 17:01 53.35732 18.37045 33194 ft 473 kts 124°
2026-04-28 17:01 53.33768 18.41467 32835 ft 470 kts 124°
2026-04-28 17:01 53.31793 18.45902 31800 ft 477 kts 124°
2026-04-28 17:02 53.29786 18.50402 30543 ft 485 kts 125°
2026-04-28 17:02 53.28437 18.53416 29655 ft 490 kts 125°
2026-04-28 17:02 53.25738 18.59452 28549 ft 484 kts 124°
2026-04-28 17:02 53.23727 18.63939 28051 ft 478 kts 124°
2026-04-28 17:03 53.20425 18.71294 27002 ft 471 kts 124°
2026-04-28 17:03 53.18469 18.75642 26138 ft 466 kts 124°
2026-04-28 17:03 53.16536 18.79931 25512 ft 456 kts 123°
2026-04-28 17:04 53.12791 18.88218 24523 ft 454 kts 123°
2026-04-28 17:04 53.10883 18.92424 23961 ft 457 kts 123°
2026-04-28 17:05 53.07052 19.00854 22777 ft 453 kts 123°
2026-04-28 17:05 53.05154 19.05020 22244 ft 450 kts 123°
2026-04-28 17:05 53.03268 19.09156 21700 ft 447 kts 123°
2026-04-28 17:06 52.99521 19.17350 20664 ft 444 kts 124°
2026-04-28 17:06 52.97651 19.21429 20118 ft 443 kts 124°
2026-04-28 17:06 52.93939 19.29508 19058 ft 441 kts 124°
2026-04-28 17:07 52.92078 19.33548 18516 ft 440 kts 124°
2026-04-28 17:07 52.90218 19.37577 17882 ft 438 kts 124°
2026-04-28 17:07 52.88397 19.41517 17396 ft 433 kts 125°
2026-04-28 17:07 52.86579 19.45447 16911 ft 426 kts 125°
2026-04-28 17:08 52.84791 19.49305 16437 ft 419 kts 125°
2026-04-28 17:08 52.83027 19.53105 15983 ft 412 kts 125°
2026-04-28 17:08 52.81289 19.56845 15489 ft 407 kts 125°
2026-04-28 17:08 52.79564 19.60533 15029 ft 402 kts 126°
2026-04-28 17:09 52.77852 19.64117 14818 ft 387 kts 126°
2026-04-28 17:09 52.76242 19.67491 14534 ft 371 kts 126°
2026-04-28 17:09 52.74660 19.70803 14014 ft 363 kts 126°
2026-04-28 17:09 52.73101 19.74065 13288 ft 359 kts 126°
2026-04-28 17:10 52.71557 19.77292 12590 ft 356 kts 126°
2026-04-28 17:10 52.70048 19.80440 11908 ft 352 kts 126°
2026-04-28 17:10 52.68533 19.83598 11248 ft 348 kts 126°
2026-04-28 17:10 52.67036 19.86713 10605 ft 344 kts 127°
2026-04-28 17:11 52.65558 19.89787 9944 ft 339 kts 127°
2026-04-28 17:11 52.64103 19.92810 9247 ft 334 kts 127°
2026-04-28 17:11 52.62667 19.95787 8574 ft 329 kts 127°
2026-04-28 17:11 52.61272 19.98678 7945 ft 324 kts 127°
2026-04-28 17:12 52.59881 20.01557 7312 ft 318 kts 127°
2026-04-28 17:12 52.58512 20.04389 6703 ft 313 kts 127°
2026-04-28 17:12 52.57169 20.07163 6180 ft 305 kts 127°
2026-04-28 17:12 52.55868 20.09844 5791 ft 294 kts 127°
2026-04-28 17:13 52.54609 20.12437 5375 ft 286 kts 127°
2026-04-28 17:13 52.53406 20.14915 5021 ft 276 kts 126°
2026-04-28 17:13 52.52230 20.17331 4720 ft 265 kts 126°
2026-04-28 17:13 52.51095 20.19665 4454 ft 258 kts 126°
2026-04-28 17:14 52.49986 20.21943 4312 ft 250 kts 127°
2026-04-28 17:14 52.48930 20.24110 4205 ft 242 kts 127°
2026-04-28 17:14 52.47872 20.26278 4096 ft 243 kts 126°
2026-04-28 17:14 52.46812 20.28449 3982 ft 243 kts 126°
2026-04-28 17:15 52.45757 20.30608 3850 ft 243 kts 127°
2026-04-28 17:15 52.44698 20.32771 3715 ft 240 kts 127°
2026-04-28 17:15 52.43680 20.34849 3605 ft 233 kts 126°
2026-04-28 17:15 52.42874 20.37075 3332 ft 224 kts 100°
2026-04-28 17:16 52.42823 20.39542 3096 ft 211 kts 78°
2026-04-28 17:16 52.42995 20.41850 3005 ft 198 kts 78°
2026-04-28 17:16 52.43176 20.44073 2740 ft 197 kts 77°
2026-04-28 17:16 52.43370 20.46305 2420 ft 196 kts 76°
2026-04-28 17:17 52.43560 20.48468 2135 ft 188 kts 76°
2026-04-28 17:17 52.43751 20.50557 1837 ft 182 kts 76°
2026-04-28 17:17 52.43935 20.52567 1556 ft 175 kts 76°
2026-04-28 17:17 52.44119 20.54525 1321 ft 172 kts 77°
2026-04-28 17:18 52.44298 20.56425 1105 ft 163 kts 77°
2026-04-28 17:18 52.44462 20.58206 992 ft 148 kts 73°
2026-04-28 17:18 52.44618 20.59852 817 ft 144 kts 76°
2026-04-28 17:18 52.44772 20.61443 618 ft 143 kts 76°
2026-04-28 17:19 52.44920 20.63047 428 ft 140 kts 77°
2026-04-28 17:19 52.45054 20.64536 350 ft 120 kts 79°
2026-04-28 17:19 52.45157 20.65563 348 ft 58 kts 81°
2026-04-28 17:19 52.45186 20.65939 339 ft 16 kts 106°
2026-04-28 17:20 52.45117 20.66016 341 ft 12 kts 160°
2026-04-28 17:20 52.45061 20.66049 340 ft 14 kts 160°
2026-04-28 17:20 52.44962 20.66106 339 ft 11 kts 161°
2026-04-28 17:20 52.44886 20.66125 341 ft 11 kts 207°
2026-04-28 17:21 52.44859 20.66003 341 ft 12 kts 261°
2026-04-28 17:21 52.44845 20.65855 340 ft 15 kts 262°
2026-04-28 17:21 52.44829 20.65682 340 ft 15 kts 263°
2026-04-28 17:22 52.44803 20.65457 337 ft 8 kts 226°
2026-04-28 17:22 52.44771 20.65428 339 ft 2 kts 206°
2026-04-28 17:22 52.44760 20.65418 340 ft 0 kts 206°
2026-04-28 17:23 52.44759 20.65418 340 ft 0 kts 206°